This is the latest recevied weather packets stored in our database for station/object SP9MUF-14. If no packets are shown the sender has not sent any weather packets the latest 10 day(s).
| Time | Temp. | Humidity | Pressure | Rain* | Wind** | Luminosity | Snow |
|---|---|---|---|---|---|---|---|
| 1787936278 | 26.67° C | 36% | 1013.4 hPa | 0 mm | - | 62 W/m² | - |
| 1787935976 | 26.67° C | 36% | 1013.4 hPa | 0 mm | - | 62 W/m² | - |
| 1787935673 | 26.67° C | 36% | 1013.4 hPa | 0 mm | - | 62 W/m² | - |
| 1787935371 | 26.67° C | 36% | 1013.4 hPa | 0 mm | - | 62 W/m² | - |
| 1787935069 | 26.67° C | 36% | 1013.4 hPa | 0 mm | - | 62 W/m² | - |
| 1787934767 | 26.67° C | 36% | 1013.4 hPa | 0 mm | - | 62 W/m² | - |
| 1787934162 | 26.67° C | 36% | 1013.4 hPa | 0 mm | - | 62 W/m² | - |
| 1787933860 | 26.67° C | 36% | 1013.4 hPa | 0 mm | - | 62 W/m² | - |
| 1787933557 | 26.67° C | 36% | 1013.4 hPa | 0 mm | - | 62 W/m² | - |
| 1787933255 | 26.67° C | 37% | 1013.3 hPa | 0 mm | - | 61 W/m² | - |
| 1787932952 | 26.67° C | 37% | 1013.3 hPa | 0 mm | - | 59 W/m² | - |
| 1787932650 | 26.67° C | 35% | 1013.2 hPa | 0 mm | - | 67 W/m² | - |
| 1787932348 | 26.67° C | 35% | 1013.4 hPa | 0 mm | - | 73 W/m² | - |
| 1787932045 | 27.78° C | 34% | 1013.3 hPa | 0 mm | - | 85 W/m² | - |
| 1787931441 | 27.78° C | 34% | 1013.2 hPa | 0 mm | - | 95 W/m² | - |
| 1787931139 | 27.78° C | 34% | 1013.4 hPa | 0 mm | - | 102 W/m² | - |
| 1787930836 | 28.89° C | 32% | 1013.4 hPa | 0 mm | - | 111 W/m² | - |
| 1787930534 | 28.89° C | 33% | 1013.4 hPa | 0 mm | - | 114 W/m² | - |
| 1787930232 | 28.89° C | 34% | 1013.3 hPa | 0 mm | - | 121 W/m² | - |
| 1787929930 | 28.89° C | 33% | 1013.4 hPa | 0 mm | - | 138 W/m² | - |
| 1787929628 | 28.89° C | 33% | 1013.4 hPa | 0 mm | - | 145 W/m² | - |
| 1787929325 | 28.89° C | 32% | 1013.5 hPa | 0 mm | - | 166 W/m² | - |
| 1787929023 | 30° C | 32% | 1014 hPa | 0 mm | - | 172 W/m² | - |
| 1787928418 | 28.89° C | 32% | 1013.7 hPa | 0 mm | - | 194 W/m² | - |
| 1787928116 | 30° C | 33% | 1013.8 hPa | 0 mm | - | 199 W/m² | - |
* Rain latest hour (hover to see other rain measurements)
** Current wind speed in m/s (hover to see current wind gust speed)